Home > Weather > Norwich > Past weeks

Flag for United Kingdom Weather for the Past 2 Weeks in Norwich, England, United Kingdom

Now
32 °F

Chilly.


Feels Like: 26 °F
Forecast: 33 / 45 °F
Wind: 6 mph from Southeast

Location: Marham

Current Time: Feb 12, 2016 at 3:55:46 AM

Latest Report: Feb 12, 2016 at 2:50 AM


Visibility: N/A

Pressure: 29.47 "Hg

Humidity: 93%

Dew point: 30 °F

Location of NorwichLocation

Historic Weather in Norwich — Graph

°F

Norwich Temperature Yesterday

Maximum temperature yesterday: 46 °F (at 1:50 PM)
Minimum temperature yesterday: 28 °F (at 7:50 AM)
Average temperature yesterday: 35 °F

High & Low Weather Summary for the Past Weeks

 TemperatureHumidityPressure
High55 °F (Feb 1, 12:50 PM)100% (Jan 31, 12:50 PM)30.27 "Hg (Jan 31, 12:50 PM)
Low28 °F (Feb 11, 7:50 AM)57% (Jan 30, 3:50 PM)28.85 "Hg (Feb 8, 11:50 AM)
Average44 °F82%29.66 "Hg
* Reported Jan 28 1:50 AM — Feb 12 1:50 AM, Norwich, Weather by CustomWeather, © 2016

Note: Actual official high and low records may vary slightly from our data, if they occured in-between our weather recording intervals... More about our weather records

Advertising

Norwich Weather History for the Previous 24 Hours

 ConditionsComfort  
Time TempWeatherWind HumidityBarometerVisibility
1:50 AM
Fri, Feb 12
34 °FChilly.5 mph87%29.50 "HgN/A
12:50 AM30 °FChilly.3 mph93%29.50 "HgN/A
11:50 PM
Thu, Feb 11
32 °FClear.6 mph87%29.53 "Hg10 mi
10:50 PM34 °FClear.3 mph87%29.56 "Hg10 mi
9:50 PM34 °FClear.3 mph87%29.56 "Hg10 mi
8:50 PM36 °FPassing clouds.3 mph81%29.59 "HgN/A
7:50 PM34 °FPassing clouds.2 mph87%29.59 "HgN/A
6:50 PM34 °FPassing clouds.3 mph87%29.59 "HgN/A
5:50 PM39 °FPassing clouds.5 mph75%29.59 "HgN/A
4:50 PM39 °FPassing clouds.6 mph75%29.59 "HgN/A
3:50 PM45 °FPassing clouds.8 mph66%29.59 "HgN/A
2:50 PM46 °FPassing clouds.7 mph66%29.59 "HgN/A
1:50 PM46 °FPassing clouds.7 mph71%29.62 "HgN/A
12:50 PM43 °FScattered clouds.6 mph76%29.62 "HgN/A
11:50 AM41 °FScattered clouds.5 mph81%29.62 "HgN/A
10:50 AM37 °FPartly sunny.5 mph87%29.65 "HgN/A
9:50 AM34 °FScattered clouds.5 mph93%29.65 "HgN/A
8:50 AM30 °FSunny.6 mph93%29.62 "Hg10 mi
7:50 AM28 °FSunny.5 mph93%29.62 "Hg10 mi
6:50 AM30 °FClear.5 mph93%29.62 "Hg10 mi
5:50 AM32 °FClear.3 mph87%29.62 "Hg10 mi
4:50 AM30 °FClear.9 mph93%29.62 "Hg10 mi
3:50 AM34 °FClear.9 mph87%29.62 "Hg10 mi
Weather by CustomWeather, © 2016

See weather overviewHow to use our weather pages